Lapse_Rate
6.6 6.7 6.7 6.5 6.6 6.7 6.7 7.0 7.3 7.8 7.3 7.6 7.9 8.1 7.9 7.9 8.0 8.1 7.9 7.9 7.4 6.6 6.6 6.3 6.2 6.0 6.1 6.2 6.2 5.8 5.5 5.3 5.4 5.7 5.7 5.8 5.8 5.8 5.5 5.5 5.7 5.5 5.4 5.4
6.7 6.9 6.6 6.6 6.5 6.5 6.6 7.0 7.5 7.6 7.1 7.3 7.8 8.0 8.0 7.9 8.0 8.1 7.9 7.8 7.7 6.9 6.9 6.6 6.4 6.2 6.0 6.1 6.1 6.0 5.7 5.4 5.4 5.6 5.5 5.6 5.4 5.5 5.3 5.5 5.6 5.5 5.5 5.3
6.6 6.6 6.7 6.7 6.5 6.5 6.6 7.0 7.3 6.9 7.3 7.6 7.6 7.6 8.0 8.1 8.2 8.4 8.2 7.9 7.6 7.2 6.9 6.7 6.5 6.4 6.2 6.2 6.1 5.9 5.8 5.7 5.5 5.5 5.7 5.7 5.8 5.7 5.7 5.6 5.5 5.4 5.5 5.6
6.5 6.8 6.7 6.5 6.6 6.6 6.7 7.3 7.0 7.2 7.0 7.4 7.6 7.8 8.4 8.2 8.4 8.6 8.5 8.4 7.9 7.4 7.0 6.7 6.4 6.3 6.3 6.3 6.3 5.9 5.8 5.9 5.8 5.7 5.8 5.7 5.7 5.7 5.6 5.4 5.1 5.2 5.3 5.3
6.8 6.7 6.7 6.8 6.9 6.8 7.0 7.1 7.2 7.4 7.4 7.4 7.5 7.4 8.0 8.1 8.4 8.5 8.6 8.6 8.1 7.6 7.2 6.9 6.7 6.5 6.2 6.2 6.2 6.2 6.0 5.9 6.0 6.0 5.9 5.7 5.8 6.0 5.8 5.6 5.2 4.9 5.3 5.4
6.7 6.6 6.6 6.9 7.1 6.9 7.1 7.2 7.3 7.7 7.6 7.7 7.6 7.4 8.3 8.4 8.6 8.7 8.5 8.3 8.3 7.7 7.5 7.1 6.7 6.6 6.4 6.4 6.4 6.3 6.3 6.2 6.0 5.9 5.9 5.9 5.7 5.9 6.0 5.9 5.9 5.8 5.7 5.8
6.9 7.1 7.3 7.2 6.9 6.9 7.3 7.3 7.7 8.0 7.9 8.2 7.3 6.9 8.1 8.4 8.4 8.7 9.0 8.7 8.5 8.0 7.6 7.3 6.9 6.9 6.9 6.9 6.7 6.5 6.3 6.3 6.3 6.1 6.0 5.9 5.6 5.8 6.0 6.0 6.0 6.1 6.0 5.9
6.9 7.3 7.4 7.6 7.6 7.6 7.7 7.5 8.0 8.0 8.2 8.2 7.3 7.4 7.9 8.2 8.4 8.9 9.2 9.1 8.7 8.3 8.0 7.7 7.4 7.2 7.3 7.2 7.1 6.8 6.6 6.4 6.5 6.4 6.2 6.1 5.9 5.8 5.8 6.0 6.1 5.9 5.7 5.7
7.0 7.3 7.5 7.4 7.3 7.3 7.4 7.5 8.4 7.8 7.3 7.1 7.5 7.4 8.3 8.4 8.6 9.0 9.1 9.3 9.0 8.5 8.3 7.9 7.8 7.5 7.4 7.2 7.4 7.2 6.8 6.5 6.5 6.6 6.5 6.3 6.2 6.1 6.0 5.9 5.9 5.8 5.9 5.7
7.2 7.1 7.6 7.5 7.5 7.4 7.6 8.0 8.0 7.7 8.0 7.8 7.7 7.2 8.0 8.5 9.0 9.3 9.3 9.3 9.0 8.9 8.6 8.5 8.4 8.0 7.9 7.7 7.4 7.3 7.2 6.8 6.6 6.6 6.6 6.6 6.4 6.2 6.1 6.0 6.0 5.9 5.7 5.8
7.8 7.3 7.9 7.7 7.9 8.1 7.8 7.5 7.8 7.7 7.8 8.5 8.1 8.3 8.1 8.3 8.7 9.2 9.4 9.2 9.2 9.2 9.0 8.8 8.9 8.6 8.3 8.1 7.8 7.4 7.1 7.4 7.3 7.0 6.9 6.8 6.6 6.4 6.1 6.0 6.0 6.0 5.9 5.9
8.2 7.6 7.6 8.4 8.3 8.2 8.1 8.0 7.9 8.2 7.7 7.9 7.9 8.4 8.5 8.6 8.8 9.2 9.4 9.4 9.2 9.2 9.4 9.3 8.9 8.6 8.7 8.7 8.3 8.1 7.7 7.5 7.6 7.2 7.1 7.0 6.9 6.7 6.5 6.2 6.0 6.0 6.0 6.0
7.9 7.8 7.9 8.4 8.8 8.8 8.2 8.6 8.6 8.6 8.5 8.3 8.7 8.7 8.9 8.8 8.8 9.0 9.3 9.2 9.3 9.2 9.2 9.3 9.3 9.2 8.9 8.9 8.7 8.3 8.0 7.8 7.7 7.4 7.0 7.0 7.0 7.0 6.8 6.6 6.4 6.1 6.0 6.1
8.0 7.8 7.9 8.0 8.0 8.1 8.2 8.4 8.6 8.6 8.9 8.9 8.5 8.8 9.3 9.1 9.0 9.0 9.1 9.2 9.3 9.4 9.3 9.0 9.2 9.1 9.0 8.8 8.7 8.4 8.3 8.0 7.8 7.7 7.2 7.0 7.0 7.0 7.0 6.7 6.6 6.4 6.2 6.2
7.5 7.5 7.8 7.8 7.6 7.6 7.9 8.2 8.5 8.7 8.7 8.7 9.3 9.1 9.0 9.2 9.1 9.1 9.2 9.3 9.2 9.2 9.3 9.0 9.1 9.0 9.0 8.8 8.6 8.6 8.3 8.1 7.9 7.8 7.5 7.1 7.0 6.9 7.0 6.9 6.8 6.6 6.5 6.4
6.8 6.6 7.0 7.0 7.5 7.5 7.0 7.6 8.1 8.4 8.5 8.6 8.6 8.7 9.1 9.0 9.0 9.2 9.3 9.3 9.4 9.4 9.4 9.4 9.2 9.1 9.0 8.8 8.6 8.4 8.2 8.2 8.0 7.8 7.6 7.3 7.0 6.9 6.9 6.8 6.8 6.9 6.7 6.6
6.7 6.6 6.7 6.9 7.1 7.4 7.3 7.4 7.7 8.3 8.3 8.4 8.4 8.6 8.7 8.8 9.0 8.9 9.0 9.2 9.3 9.3 9.3 9.4 9.3 9.3 8.9 8.8 8.6 8.5 8.2 8.3 8.1 8.1 7.8 7.5 7.2 7.2 7.1 7.1 7.1 7.1 6.9 6.7
6.6 6.7 6.7 6.8 6.9 7.3 7.4 7.6 7.7 7.9 8.2 8.2 8.2 8.4 8.6 8.6 8.7 8.9 9.0 9.0 9.0 9.1 9.2 9.2 9.1 9.2 9.0 8.7 8.6 8.7 8.6 8.6 8.4 8.3 8.1 7.7 7.4 7.2 6.9 7.2 7.3 7.2 7.2 7.0
7.0 6.8 6.5 6.8 7.2 7.5 7.7 7.6 7.8 7.6 7.5 7.7 7.6 8.0 8.4 8.3 8.2 8.5 9.0 9.1 9.0 8.9 9.1 9.1 9.1 9.1 9.1 9.1 9.0 8.9 8.6 8.6 8.5 8.4 8.5 7.9 7.4 7.3 7.0 7.1 7.3 7.1 7.1 7.1
7.2 7.4 7.1 6.8 7.2 7.6 7.2 7.6 7.8 7.7 7.5 7.5 7.3 7.6 7.9 7.9 7.5 7.5 7.8 7.9 8.0 8.1 8.5 8.6 8.6 8.8 9.0 9.2 9.3 9.1 8.7 8.3 8.2 7.8 7.9 7.6 7.6 7.4 7.3 7.1 7.1 7.2 7.1 7.1
7.2 7.3 7.4 7.4 7.3 7.4 7.2 7.0 7.3 7.4 7.3 6.8 7.3 7.6 7.6 7.6 7.4 7.4 6.9 7.7 7.7 7.6 7.7 7.8 7.6 7.9 8.0 8.1 8.9 8.6 8.5 8.2 7.9 7.9 8.0 7.8 7.7 7.6 7.3 7.2 7.1 7.2 7.2 7.2
7.1 7.3 7.3 7.3 7.1 7.5 7.0 7.1 7.4 6.8 6.4 6.7 6.5 6.8 7.2 7.1 7.1 7.3 7.5 7.3 7.1 6.9 7.1 7.0 7.0 6.9 7.0 7.3 7.6 7.8 8.3 8.2 6.9 7.0 7.1 7.5 7.7 7.6 7.6 7.5 7.3 7.3 7.3 7.3
7.0 6.8 6.8 7.0 7.1 7.2 7.0 6.8 6.7 6.6 6.6 6.6 6.7 6.6 6.7 6.8 6.9 7.0 7.1 7.0 6.6 6.7 6.5 7.0 6.8 6.9 7.0 6.9 7.0 6.9 7.3 7.2 6.9 6.5 6.5 6.4 7.3 7.4 7.4 7.6 7.7 7.5 7.4 7.5
6.6 6.7 6.4 6.6 6.9 6.9 6.8 6.5 6.5 6.5 6.9 6.7 6.6 6.7 6.7 6.9 6.7 6.8 6.9 6.9 7.0 7.2 7.0 7.1 6.9 6.7 7.0 6.8 6.9 6.8 6.9 7.0 7.0 6.5 6.4 6.7 7.6 7.8 7.6 7.3 7.5 7.3 7.3 7.3
6.0 6.0 6.2 6.2 6.6 6.3 6.5 6.5 6.4 6.5 6.6 6.7 6.9 7.0 7.0 7.0 7.1 6.9 6.8 6.7 6.7 6.7 6.8 6.8 6.8 6.8 6.6 6.5 6.5 6.6 6.9 6.8 7.2 7.1 6.3 7.0 7.4 7.7 7.6 7.5 7.5 7.4 7.4 7.4
5.8 5.6 5.5 5.5 5.7 5.6 6.0 6.5 6.5 6.4 6.5 6.5 6.5 6.7 6.7 6.5 6.6 6.7 6.7 6.7 6.7 6.8 6.8 6.8 7.0 6.8 6.5 6.4 6.5 6.4 6.5 6.6 6.2 6.4 6.7 7.2 7.2 7.2 7.4 7.5 7.5 7.6 7.4 7.3
Wind_Speed
2 6 13 8 2 2 2 7 11 14 7 6 10 13 15 9 13 13 15 16 17 18 15 15 15 16 16 15 15 15 15 14 11 9 9 8 8 7 6 9 10 9 7 7
4 13 6 4 5 3 4 10 13 11 2 8 13 15 14 8 12 19 19 19 19 16 16 16 16 17 17 16 16 15 16 14 13 10 9 6 7 7 7 7 10 11 9 9
6 1 6 7 5 6 8 10 7 9 14 2 7 8 6 8 12 12 17 18 19 19 19 18 18 19 17 17 17 16 16 16 13 13 8 5 5 3 6 6 7 11 11 11
6 3 7 5 6 6 8 8 9 9 6 5 6 9 13 6 8 9 13 17 19 19 18 17 19 19 19 18 17 17 17 16 14 14 12 13 10 9 8 8 7 8 12 13
3 4 4 8 13 10 4 4 7 7 5 3 2 4 6 4 5 3 9 14 19 19 21 20 21 21 20 16 17 17 17 16 15 15 13 12 11 8 6 6 8 8 8 13
8 1 4 3 4 12 1 6 0 1 2 5 1 3 9 4 2 7 2 5 14 17 20 20 17 17 17 16 16 16 17 17 16 16 16 15 13 11 7 8 6 7 7 8
7 16 10 9 8 6 5 5 3 4 3 3 2 5 11 15 13 12 17 8 11 16 17 17 18 18 18 19 18 16 17 17 17 17 17 16 15 13 10 11 9 8 7 7
4 1 6 7 16 6 8 7 4 3 3 7 3 6 5 6 14 11 9 6 7 15 16 18 19 19 20 20 20 19 18 17 18 17 17 14 15 10 9 10 8 8 8 8
4 4 2 8 5 10 6 7 4 6 1 5 3 6 13 8 9 8 3 5 9 14 16 18 19 19 19 20 21 20 19 18 18 19 15 15 13 14 11 11 10 8 8 7
3 7 3 1 5 3 5 9 3 3 5 6 3 4 7 11 13 13 8 3 8 10 12 14 16 18 18 19 18 19 19 20 18 18 16 15 15 14 13 12 12 11 10 9
5 5 3 4 7 9 5 5 2 2 3 6 5 5 4 8 10 13 12 9 4 9 13 14 15 16 16 16 18 18 18 18 17 17 16 15 15 15 14 12 12 12 12 11
6 3 5 10 3 0 3 5 8 6 5 2 3 9 2 7 9 7 8 8 8 2 8 10 13 15 16 17 18 18 17 18 17 15 15 15 14 14 14 14 14 12 12 11
5 4 5 6 4 4 5 6 13 8 2 8 8 10 4 6 6 3 4 5 6 4 2 8 12 14 15 17 17 17 18 17 15 15 16 15 15 14 15 14 14 13 13 13
5 4 8 11 14 3 10 9 8 13 8 9 11 18 10 8 9 5 4 5 6 5 4 1 7 9 13 14 15 15 16 16 16 16 16 16 16 16 15 14 14 14 13 13
1 6 4 11 12 10 14 14 11 12 18 11 13 12 16 7 6 7 8 6 4 3 2 2 4 7 9 11 12 14 15 16 15 16 16 17 15 14 13 13 13 13 13 13
2 4 2 10 9 8 10 14 11 12 11 11 7 9 4 1 2 5 9 8 5 3 4 3 2 6 9 11 12 13 14 15 14 15 16 14 14 14 14 13 13 13 12 13
5 6 6 14 11 12 15 9 12 8 3 4 8 6 4 0 5 7 8 9 9 8 8 7 6 4 6 10 11 13 14 14 15 15 14 14 14 14 15 14 13 13 13 12
10 7 5 11 11 18 9 3 9 9 3 2 4 4 4 4 8 8 8 8 10 11 11 10 9 8 5 4 8 9 11 13 13 13 13 13 14 14 13 13 14 13 12 13
9 6 5 6 11 15 13 4 5 5 3 4 4 5 8 4 5 8 8 9 10 11 10 11 13 14 12 5 2 7 8 9 10 12 14 14 15 15 14 15 15 13 12 12
5 3 5 3 7 8 6 12 11 7 6 8 8 6 7 3 2 2 6 5 8 10 11 11 11 14 19 15 5 4 2 4 8 8 10 10 12 13 15 15 14 13 12 12
3 1 5 6 6 4 9 14 7 6 3 10 10 9 9 4 3 3 9 2 7 6 7 8 7 7 8 12 13 9 8 8 9 8 7 8 10 12 12 12 11 10 11 10
3 4 2 2 4 5 13 4 4 7 10 12 12 10 9 8 5 5 5 2 1 1 2 4 4 7 4 6 9 10 8 10 6 8 8 11 9 8 8 11 10 11 10 10
2 4 4 4 5 5 4 3 2 7 9 11 11 12 9 9 8 8 8 8 5 3 5 4 5 5 7 6 4 6 4 7 11 9 15 15 11 7 7 9 10 9 10 9
2 0 4 8 3 5 8 9 6 6 7 11 12 12 11 11 9 10 9 9 8 7 4 2 4 6 5 6 4 7 6 6 8 10 4 8 6 3 2 6 7 8 5 4
9 8 10 14 14 13 15 8 11 14 13 12 11 10 11 11 13 12 11 11 10 10 9 7 6 5 9 6 4 1 1 3 5 5 7 5 2 5 2 1 1 3 4 8
2 5 7 10 13 10 14 15 19 18 19 18 16 16 13 12 15 15 14 12 11 11 10 9 8 8 7 7 7 4 1 2 3 3 4 4 3 3 3 4 4 8 7 5
Wind_Direction
101 215 222 223 151 129 296 288 289 281 299 299 313 296 298 218 215 208 203 203 204 211 203 201 199 200 196 196 193 195 196 197 191 191 195 206 207 205 212 211 213 207 201 223
181 239 210 137 161 212 267 294 291 299 169 316 311 301 298 204 221 213 208 205 210 205 200 199 196 195 196 193 195 191 196 194 193 192 198 204 197 210 216 214 216 224 204 216
222 114 139 188 185 256 267 260 284 291 324 280 299 282 283 270 236 230 224 216 215 207 199 198 196 196 194 193 192 192 192 194 197 198 185 176 178 186 204 210 220 225 215 215
249 223 228 222 247 235 280 231 258 278 310 314 2 304 303 319 286 232 234 215 213 209 207 200 195 196 197 197 191 192 190 192 193 189 191 197 204 206 211 211 215 224 217 218
223 208 186 216 245 187 239 216 292 287 262 288 205 270 278 313 282 275 237 221 213 202 201 199 199 198 198 191 189 190 191 193 192 189 197 195 208 216 208 214 212 218 209 216
265 229 213 236 172 193 83 280 199 108 213 258 330 273 285 287 286 321 290 228 208 199 199 202 198 195 196 191 191 187 187 192 192 194 196 200 204 206 205 211 198 207 202 202
262 245 234 214 243 196 199 257 273 234 207 283 100 259 258 286 291 287 297 281 201 197 196 194 189 192 194 191 190 191 191 192 194 196 199 202 204 206 197 206 206 194 194 196
295 289 183 177 215 220 198 219 240 268 244 307 141 255 262 292 300 298 296 235 188 189 195 195 191 193 194 191 192 191 193 196 193 197 202 201 203 207 207 208 209 205 200 195
220 255 232 216 169 199 167 206 279 243 141 269 267 272 283 281 322 348 354 163 175 187 193 192 193 195 193 193 196 194 193 198 196 198 198 201 201 208 209 206 208 208 208 199
234 276 281 85 166 84 234 137 177 210 248 268 260 270 259 305 333 338 341 140 185 191 192 196 197 196 196 196 196 197 197 198 197 200 200 200 202 204 208 208 213 213 214 209
192 232 225 295 208 200 155 207 204 270 261 257 283 281 231 265 319 313 315 336 306 208 194 194 197 198 196 195 194 198 201 199 198 199 200 201 202 202 204 208 211 213 218 217
200 238 256 253 207 247 224 207 194 242 218 242 292 273 226 270 300 289 301 316 329 239 227 206 191 189 191 194 195 198 202 202 201 199 197 203 201 202 202 208 209 208 213 215
173 207 286 277 181 134 235 231 233 236 192 212 248 264 180 276 271 269 312 348 341 1 192 205 197 191 190 192 193 195 201 206 198 195 196 201 204 204 208 209 210 209 213 217
191 205 248 269 291 345 283 273 226 232 235 236 230 260 244 253 257 243 290 327 343 18 27 218 222 211 196 194 191 191 198 202 197 195 198 200 203 206 208 207 207 207 210 212
354 271 234 264 277 284 272 269 261 223 250 238 250 225 253 242 302 317 315 321 332 29 36 180 215 204 201 199 196 195 199 200 196 197 201 204 203 203 205 206 206 205 205 211
344 275 278 281 276 267 284 283 266 239 242 251 278 255 256 62 36 344 342 341 344 52 41 23 227 213 209 199 193 196 199 200 197 202 210 205 199 197 203 204 206 207 207 209
285 277 261 268 281 298 274 268 258 241 201 239 234 268 334 274 57 28 357 6 5 8 16 22 13 294 223 203 200 197 195 194 200 203 205 205 203 204 203 203 204 208 209 207
259 260 269 273 275 263 282 274 250 251 251 202 226 309 326 99 91 66 54 43 36 28 27 25 21 9 349 234 204 204 194 197 201 205 205 204 206 209 207 202 207 213 211 211
228 232 248 248 250 273 283 25 355 317 173 24 20 104 107 79 112 70 55 50 41 32 34 49 47 39 37 30 192 189 200 198 205 212 211 208 204 206 202 207 207 207 211 216
97 229 233 196 257 258 22 342 329 309 209 19 14 356 342 330 256 10 307 85 72 50 34 20 32 57 46 27 42 111 132 236 231 243 242 225 213 215 215 213 210 205 204 217
315 283 251 236 250 263 0 329 317 228 9 353 354 1 4 331 348 131 244 113 59 38 24 345 345 39 75 73 50 55 59 23 348 312 273 244 230 223 223 225 217 211 213 210
309 316 316 263 251 233 5 16 2 349 343 352 349 352 341 338 306 280 289 296 304 148 71 334 342 317 314 339 93 73 64 96 49 350 325 292 256 230 226 220 219 216 210 218
268 349 315 295 319 356 354 15 28 3 348 347 340 344 337 325 319 313 299 304 299 320 320 350 359 356 354 5 29 85 77 69 96 26 334 282 257 233 236 230 224 216 214 221
284 252 287 317 319 299 294 308 241 330 328 321 320 319 328 325 322 314 311 302 300 308 295 323 326 350 335 321 22 101 146 144 134 140 217 267 266 141 209 241 235 224 189 120
286 303 285 280 278 288 289 277 323 316 309 304 297 291 297 309 308 314 312 311 302 297 299 287 269 274 281 289 282 262 16 77 83 124 208 237 245 87 145 203 296 126 116 150
272 323 295 301 322 298 291 300 305 303 299 297 294 292 283 283 289 294 293 297 301 300 293 284 269 261 255 266 283 309 321 193 182 209 208 229 254 166 206 184 126 29 40 190